Weather History for CYZP - February, 2014

Change the Weather History Date:

Monday, February 3, 2014

  Actual Average Record
Temperature  
Mean Temperature 36 °F -  
Max Temperature 39 °F 45 °F 51 °F (2011)
Min Temperature 33 °F 37 °F 26 °F (2004)
Degree Days  
Heating Degree Days 29    
Moisture  
Dew Point 20 °F    
Average Humidity 49    
Maximum Humidity 70    
Minimum Humidity 28    
Precipitation  
Precipitation 0.00 in 0.33 in - ()
Sea Level Pressure  
Sea Level Pressure 30.34 in    
Wind  
Wind Speed 8 mph ()    
Max Wind Speed 17 mph    
Max Gust Speed 23 mph    
Visibility 9.0 miles    
Events      
Averages and records for this station are not official NWS values.
T = Trace of Precipitation, MM = Missing Value Source: Averaged Metar Reports

Daily Weather History Graph

Daily Weather History Graph

Search for Another Location

Airport or City:

Trip Planner

Search our weather history database for the weather conditions in past years. The results will help you decide how hot, cold, wet, or windy it might be!

Date:

Astronomy

Feb. 03, 2014 Rise Set
Actual Time 8:27 AM PST 5:35 PM PST
Civil Twilight 7:50 AM PST 6:12 PM PST
Nautical Twilight 7:08 AM PST 6:54 PM PST
Astronomical Twilight 6:28 AM PST 7:35 PM PST
Moon 9:50 AM PST (2/3) 11:22 PM PST (2/3)
Length of Visible Light 10h 22m
Length of Day
9h 07m
Waxing Crescent, 20% of the Moon is Illuminated
Feb 3
Waxing Crescent
Feb 6
First Quarter
Feb 14
Full
Feb 22
Last Quarter
Mar 1
New

Hourly Weather History & Observations

Time (PST) Temp. Windchill Dew Point Humidity Pressure Visibility Wind Dir Wind Speed Gust Speed Precip Events Conditions
12:00 AM 37.4 °F 32.1 °F 24.8 °F 60% 30.26 in 9.0 mi NNE 6.9 mph - N/A   Clear
1:00 AM 36 °F - 18 °F 35% 30.25 in - East 8.1 mph - -  
1:00 AM 37.4 °F 29.8 °F 17.6 °F 45% 30.26 in 9.0 mi East 11.5 mph - N/A   Clear
2:00 AM 39.2 °F 31.6 °F 17.6 °F 42% 30.28 in 9.0 mi ENE 12.7 mph - N/A   Clear
3:00 AM 39.2 °F 31.6 °F 21.2 °F 49% 30.28 in 9.0 mi NE 12.7 mph - N/A   Clear
4:00 AM 36 °F - 18 °F 35% 30.27 in - ENE 6.9 mph - -  
4:00 AM 39.2 °F 32.5 °F 21.2 °F 49% 30.28 in 9.0 mi ENE 10.4 mph - N/A   Clear
5:00 AM 37.4 °F 32.1 °F 21.2 °F 52% 30.29 in 9.0 mi ENE 6.9 mph - N/A   Clear
6:00 AM 35.6 °F 27.5 °F 26.6 °F 70% 30.30 in 9.0 mi NNW 11.5 mph - N/A   Clear
7:00 AM 33 °F - 26 °F 65% 30.30 in - SW 3.5 mph - -  
7:00 AM 35.6 °F 29.9 °F 24.8 °F 65% 30.32 in 9.0 mi Variable 6.9 mph - N/A   Clear
8:00 AM 35.6 °F 28.0 °F 26.6 °F 70% 30.33 in 9.0 mi NNW 10.4 mph - N/A   Partly Cloudy
9:00 AM 35.6 °F - 23.0 °F 60% 30.34 in 9.0 mi Variable 2.3 mph - N/A   Clear
10:00 AM 37 °F - 27 °F 57% 30.33 in - SSE 1.2 mph - -  
10:00 AM 35.6 °F - 26.6 °F 70% 30.35 in 9.0 mi South 2.3 mph - N/A   Partly Cloudy
11:00 AM 37.4 °F 32.8 °F 21.2 °F 52% 30.36 in 9.0 mi ENE 5.8 mph - N/A   Clear
12:00 PM 39.2 °F 32.5 °F 21.2 °F 49% 30.35 in 9.0 mi ENE 10.4 mph - N/A   Clear
1:00 PM 38 °F - 19 °F 33% 30.35 in - ENE 9.2 mph - -  
1:00 PM 37.4 °F 30.8 °F 19.4 °F 48% 30.36 in 9.0 mi East 9.2 mph - N/A   Clear
2:00 PM 37.4 °F 30.3 °F 17.6 °F 45% 30.36 in 9.0 mi ENE 10.4 mph - N/A   Clear
3:00 PM 37.4 °F 31.4 °F 17.6 °F 45% 30.36 in 9.0 mi ENE 8.1 mph - N/A   Clear
4:00 PM 37 °F - 17 °F 31% 30.36 in - NE 4.6 mph - -  
4:00 PM 37.4 °F 30.8 °F 19.4 °F 48% 30.37 in 9.0 mi NNE 9.2 mph - N/A   Partly Cloudy
5:00 PM 35.6 °F 28.6 °F 17.6 °F 48% 30.38 in 9.0 mi NNE 9.2 mph - N/A   Clear
6:00 PM 35.6 °F 25.5 °F 15.8 °F 44% 30.37 in 9.0 mi NNE 17.3 mph 23.0 mph N/A   Clear
7:00 PM 34 °F - 13 °F 28% 30.37 in - NNE 12.7 mph - -  
7:00 PM 35.6 °F 25.5 °F 15.8 °F 44% 30.38 in 9.0 mi NE 17.3 mph 23.0 mph N/A   Clear
8:00 PM 35.6 °F 27.1 °F 14.0 °F 41% 30.38 in 9.0 mi NE 12.7 mph 19.6 mph N/A   Clear
9:00 PM 35.6 °F 26.2 °F 17.6 °F 48% 30.39 in 9.0 mi NE 15.0 mph - N/A   Clear
9:47 PM 33.8 °F 24.8 °F 17.6 °F 52% 30.39 in 9.0 mi East 12.7 mph - N/A   Partly Cloudy
10:00 PM 33 °F - 17 °F 38% 30.38 in - East 10.4 mph - -  
10:00 PM 33.8 °F 23.5 °F 17.6 °F 52% 30.39 in 9.0 mi East 16.1 mph - N/A   Partly Cloudy
11:00 PM 33.8 °F 24.8 °F 17.6 °F 52% 30.40 in 9.0 mi ENE 12.7 mph - N/A   Clear